STARLINK-2412

operational
NORAD ID: 48094 Int'l Des: 2021-027 Owner: SPXS Country: US Constellation: starlink
LEOCIRCULARSTARLINK_TYPE

Über STARLINK-2412

Beschreibung wird geladen...

Live-Position

3D-Globus wird geladen...

Nächste Überflüge

Höhenverlauf

Altitude vs Time

uPlot chart will show altitude changes over time

Zweizeiliger Elementsatz

1 48094U 21027C 25251.77759652 -.00000609 00000-0 -21968-4 0 9997
2 48094 53.0551 268.2560 0001467 89.8905 270.2252 15.06386422245000
Epoch: 8. Sept. 2025 • Age: 16 hours

Aktueller Status

Höhe 566.1 km
Geschwindigkeit 7.58 km/s
Subsatellitenpunkt -51.60°S, 52.34°E
Startdatum 7. Apr. 2021
Alter 4.4 years
Typ internet

Technische Details

Klassifizierung Payload
Masse 260.00 kg
Trockenmasse 248.00 kg
Gesamtmasse 260.00 kg
Länge 0.20 m
Durchmesser 2.80 m
Spannweite 9.00 m
Form Box + pan
Hersteller SPXS
Bus-Typ Starlink
Phasenstatus In Orbit
Besitzer/Staat SPXS/US

Große Konstellationen

Loading constellations...